Hourly Data Report for January 10, 2018

All times are specified in Local Standard Time (LST). Add 1 hour to adjust for Daylight Saving Time where and when it is observed.

VANCOUVER INTL A
BRITISH COLUMBIA

49°11'41.000" N
123°11'02.000" W
4.30 m
1108395
71892
YVR

Download Data

Hourly Data (January 2018)
Hourly Data Report for January 10, 2018
Temp Definition
°C
Dew Point Temp Definition
°C
Rel Hum Definition
%
Wind Dir Definition
10's deg

Wind Spd Definition
km/h
Visibility Definition
km
Stn Press Definition
kPa
Hmdx Definition


Wind Chill Definition


Weather Definition


TIME
00:00 5.8 4.2 89 27 17 19.3 100.74     Rain
01:00 5.3 3.8 90 28 13 19.3 100.80     Cloudy
02:00 5.2 3.2 87 28 16 32.2 100.84     LegendNANA
03:00 5.1 4.1 93 22 13 32.2 100.91     LegendNANA
04:00 4.6 4.0 95 22 14 32.2 100.92     Cloudy
05:00 4.1 3.4 95 22 11 32.2 101.00     LegendNANA
06:00 4.2 3.4 94 21 7 32.2 101.05     LegendNANA
07:00 4.5 3.8 95 19 6 32.2 101.11     Mainly Clear
08:00 2.5 2.2 98 21 10 32.2 101.20     LegendNANA
09:00 2.1 1.7 97 0 1 32.2 101.32     LegendNANA
10:00 3.7 3.2 96 27 4 32.2 101.40     Cloudy
11:00 5.3 3.8 90 21 4 48.3 101.43     LegendNANA
12:00 5.4 3.5 88 21 6 48.3 101.47     LegendNANA
13:00 5.8 3.5 85 21 5 48.3 101.50     Cloudy
14:00 6.1 3.7 85 18 6 48.3 101.50     LegendNANA
15:00 6.3 4.0 85 36 2 48.3 101.51     LegendNANA
16:00 6.5 2.5 75 13 7 48.3 101.60     Cloudy
17:00 6.0 3.3 83 8 9 32.2 101.60     LegendNANA
18:00 5.7 3.5 86 8 10 32.2 101.65     Rain
19:00 5.5 3.0 84 8 10 32.2 101.64     Mostly Cloudy
20:00 5.5 4.0 90 9 14 24.1 101.64     LegendNANA
21:00 5.6 3.7 87 8 12 24.1 101.62     LegendNANA
22:00 5.8 4.1 89 5 14 24.1 101.63     Cloudy
23:00 5.5 3.8 88 7 12 24.1 101.62     LegendNANA

Notes on Data Quality.

Legend

  • E = Estimated
  • M = Missing
  • NA = Not Available
Date modified: